Regional Weather Roundup
Issued by NWS

Home | Current Version | Previous Version | Text Only | Print | Product List | Glossary Off
Versions: 1 2 3 4 5 6 7 8 9 10 11 12 13 14 15 16 17 18 19 20 21 22 23 24 25 26 27 28 29 30 31 32 33 34 35 36 37 38 39 40 41 42 43 44 45 46 47 48 49 50

128
ASUS43 KLMK 260402
RWRKY
KENTUCKY REGIONAL WEATHER ROUNDUP
NATIONAL WEATHER SERVICE LOUISVILLE KY
1200 AM EDT THU MAY 26 2016

NOTE "FAIR" INDICATES FEW OR NO CLOUDS BELOW 12,000 FEET
WITH NO SIGNIFICANT WEATHER AND/OR OBSTRUCTIONS TO VISIBILITY.

KYZ001>023-026-027-061>063-070>075-260500-
WESTERN AND SOUTH CENTRAL KENTUCKY

CITY           SKY/WX    TMP DP  RH WIND       PRES   REMARKS
PADUCAH        PTCLDY    68  63  84 SW5       30.05S
HENDERSON      CLOUDY    68  63  83 S12       30.04S
OWENSBORO      CLOUDY    68  65  90 SW9       30.06R
HOPKINSVILLE   CLOUDY    66  66 100 SE5       30.07F
BOWLING GREEN  CLOUDY    67  65  93 SW6       30.08S
GLASGOW        NOT AVBL
$$

KYZ024-025-028>034-038-045-046-053-260500-
NORTH CENTRAL KENTUCKY

CITY           SKY/WX    TMP DP  RH WIND       PRES   REMARKS
LOUISVILLE/SDF CLOUDY    72  61  68 S7        30.06S
LOUISVILLE/LOU CLOUDY    71  61  70 S3        30.06F
FORT KNOX      CLOUDY    67  63  85 S5        30.06S
$$

KYZ035>037-039>044-047>052-055>060-089>105-260500-
NORTHEAST KENTUCKY

CITY           SKY/WX    TMP DP  RH WIND       PRES   REMARKS
LEXINGTON      CLOUDY    70  61  73 E3        30.08F
COVINGTON      MOCLDY    69  64  84 S6        30.07F
FRANKFORT      CLOUDY    70  62  76 CALM      30.06F
$$

KYZ054-064>069-076>088-106>120-260500-
SOUTHEAST KENTUCKY

CITY           SKY/WX    TMP DP  RH WIND       PRES   REMARKS
JACKSON        CLOUDY    70  59  68 CALM      30.14F
LONDON         CLOUDY    68  63  84 SE3       30.11F
SOMERSET       NOT AVBL
MIDDLESBORO    CLOUDY    66  63  88 CALM      30.15F
MONTICELLO     CLOUDY    68  65  90 W14       30.10F
$$





USA.gov is the U.S. government's official web portal to all federal, state and local government web resources and services.